| time (UTC) | temp C | wind direction | speed KPH | gust KPH | rain 1hr cm | rain 24hr cm | rain mn cm | humidity % | barometer mb |
| 20260505091504 | 10 | 229 | 4.8 | 9.7 | 0.00 | 0.00 | 0.00 | 88 | 1099.8 |
| 20260505091005 | 10 | 229 | 3.2 | 8.0 | 0.00 | 0.00 | 0.00 | 88 | 1099.8 |
| 20260505090505 | 10 | 229 | 3.2 | 12.9 | 0.00 | 0.00 | 0.00 | 88 | 1099.8 |
| 20260505090005 | 10 | 229 | 1.6 | 9.7 | 0.00 | 0.00 | 0.00 | 88 | 1099.8 |
| 20260505085504 | 10 | 229 | 4.8 | 11.3 | 0.00 | 0.00 | 0.00 | 89 | 1099.8 |
| 20260505085005 | 10 | 207 | 3.2 | 14.5 | 0.00 | 0.00 | 0.00 | 89 | 1099.8 |
| 20260505084504 | 10 | 177 | 3.2 | 9.7 | 0.00 | 0.00 | 0.00 | 89 | 1099.8 |
| 20260505084004 | 10 | 192 | 3.2 | 8.0 | 0.00 | 0.00 | 0.00 | 89 | 1099.8 |
| 20260505083505 | 10 | 198 | 1.6 | 12.9 | 0.00 | 0.00 | 0.00 | 89 | 1099.8 |
| 20260505082004 | 10 | 225 | 3.2 | 12.9 | 0.00 | 0.00 | 0.00 | 89 | 1099.8 |
| 20260505081504 | 10 | 215 | 1.6 | 16.1 | 0.00 | 0.00 | 0.00 | 89 | 1099.8 |
| 20260505081004 | 10 | 212 | 4.8 | 12.9 | 0.00 | 0.00 | 0.00 | 89 | 1099.8 |
| 20260505080504 | 10 | 209 | 3.2 | 11.3 | 0.00 | 0.00 | 0.00 | 89 | 1099.8 |
| 20260505080004 | 10 | 199 | 1.6 | 8.0 | 0.00 | 0.00 | 0.00 | 89 | 1099.8 |
| 20260505075504 | 10 | 191 | 3.2 | 20.9 | 0.00 | 0.00 | 0.00 | 89 | 1099.8 |
| 20260505075005 | 10 | 225 | 3.2 | 8.0 | 0.00 | 0.00 | 0.00 | 89 | 1099.8 |
| 20260505074504 | 10 | 225 | 1.6 | 4.8 | 0.00 | 0.00 | 0.00 | 89 | 1099.8 |
| 20260505074004 | 9 | 225 | 3.2 | 11.3 | 0.00 | 0.00 | 0.00 | 89 | 1099.8 |
| 20260505073504 | 9 | 225 | 1.6 | 11.3 | 0.00 | 0.00 | 0.00 | 88 | 1099.8 |
| 20260505073004 | 9 | 225 | 0.0 | 8.0 | 0.00 | 0.00 | 0.00 | 88 | 1099.8 |
| 20260505072505 | 9 | 225 | 3.2 | 8.0 | 0.00 | 0.00 | 0.00 | 88 | 1099.8 |
| 20260505072004 | 9 | 225 | 3.2 | 11.3 | 0.00 | 0.00 | 0.00 | 88 | 1099.8 |
| 20260505071504 | 9 | 225 | 3.2 | 11.3 | 0.00 | 0.00 | 0.00 | 88 | 1099.8 |
| 20260505071005 | 9 | 225 | 4.8 | 12.9 | 0.00 | 0.00 | 0.00 | 88 | 1099.8 |
| 20260505070504 | 10 | 225 | 3.2 | 9.7 | 0.00 | 0.00 | 0.00 | 88 | 1099.8 |
| 20260505065504 | 10 | 225 | 6.4 | 9.7 | 0.00 | 0.00 | 0.00 | 88 | 1099.8 |
| 20260505065005 | 10 | 225 | 1.6 | 4.8 | 0.00 | 0.00 | 0.00 | 88 | 1099.8 |
| 20260505064504 | 10 | 225 | 1.6 | 8.0 | 0.00 | 0.00 | 0.00 | 88 | 1099.8 |
| 20260505064005 | 10 | 225 | 1.6 | 8.0 | 0.00 | 0.00 | 0.00 | 88 | 1099.8 |
| 20260505063505 | 10 | 225 | 4.8 | 12.9 | 0.00 | 0.00 | 0.00 | 88 | 1099.8 |
| 20260505063004 | 10 | 225 | 1.6 | 4.8 | 0.00 | 0.00 | 0.00 | 88 | 1099.8 |
| 20260505062505 | 10 | 225 | 1.6 | 8.0 | 0.00 | 0.00 | 0.00 | 88 | 1099.8 |
| 20260505062004 | 10 | 225 | 1.6 | 4.8 | 0.00 | 0.00 | 0.00 | 88 | 1099.8 |
| 20260505061504 | 10 | 225 | 3.2 | 4.8 | 0.00 | 0.00 | 0.00 | 88 | 1099.8 |
| 20260505061005 | 10 | 225 | 3.2 | 11.3 | 0.00 | 0.00 | 0.00 | 87 | 1099.8 |
| 20260505060505 | 10 | 225 | 4.8 | 9.7 | 0.00 | 0.00 | 0.00 | 87 | 1099.8 |
| 20260505060005 | 10 | 225 | 0.0 | 4.8 | 0.00 | 0.00 | 0.00 | 87 | 1099.8 |
| 20260505055505 | 10 | 225 | 3.2 | 9.7 | 0.00 | 0.00 | 0.00 | 87 | 1099.8 |
| 20260505055004 | 10 | 225 | 1.6 | 11.3 | 0.00 | 0.00 | 0.00 | 87 | 1099.8 |
| 20260505054505 | 10 | 225 | 1.6 | 9.7 | 0.00 | 0.00 | 0.00 | 87 | 1099.8 |
| 20260505054004 | 10 | 225 | 1.6 | 4.8 | 0.00 | 0.00 | 0.00 | 87 | 1099.8 |
| 20260505053505 | 10 | 225 | 1.6 | 4.8 | 0.00 | 0.00 | 0.00 | 86 | 1099.8 |
| 20260505052505 | 10 | 225 | 1.6 | 14.5 | 0.00 | 0.00 | 0.00 | 86 | 1099.8 |
| 20260505052004 | 10 | 225 | 1.6 | 14.5 | 0.00 | 0.00 | 0.00 | 86 | 1099.8 |
| 20260505051504 | 10 | 225 | 3.2 | 12.9 | 0.00 | 0.00 | 0.00 | 86 | 1099.8 |
| 20260505051004 | 10 | 225 | 0.0 | 11.3 | 0.00 | 0.00 | 0.00 | 86 | 1099.8 |
| 20260505050504 | 10 | 225 | 1.6 | 12.9 | 0.00 | 0.00 | 0.00 | 86 | 1099.8 |
| 20260505041504 | 10 | 214 | 4.8 | 14.5 | 0.00 | 0.00 | 0.00 | 85 | 1099.8 |
| 20260505041005 | 10 | 209 | 4.8 | 19.3 | 0.00 | 0.00 | 0.00 | 85 | 1099.8 |
| 20260505040504 | 10 | 189 | 3.2 | 16.1 | 0.00 | 0.00 | 0.00 | 84 | 1099.8 |
| 20260505040005 | 10 | 184 | 4.8 | 11.3 | 0.00 | 0.00 | 0.00 | 84 | 1099.8 |
| 20260505035504 | 10 | 172 | 4.8 | 14.5 | 0.00 | 0.00 | 0.00 | 84 | 1099.8 |
| 20260505035004 | 10 | 212 | 6.4 | 12.9 | 0.00 | 0.00 | 0.00 | 84 | 1099.8 |
| 20260505034504 | 10 | 218 | 1.6 | 11.3 | 0.00 | 0.00 | 0.00 | 84 | 1099.8 |
| 20260505034004 | 10 | 219 | 3.2 | 11.3 | 0.00 | 0.00 | 0.00 | 83 | 1099.8 |
| 20260505033505 | 10 | 206 | 4.8 | 14.5 | 0.00 | 0.00 | 0.00 | 83 | 1099.8 |
| 20260505033005 | 10 | 209 | 8.0 | 14.5 | 0.00 | 0.00 | 0.00 | 83 | 1099.8 |
| 20260505032504 | 10 | 213 | 3.2 | 19.3 | 0.00 | 0.00 | 0.00 | 83 | 1099.8 |
| 20260505032004 | 10 | 225 | 1.6 | 8.0 | 0.00 | 0.00 | 0.00 | 82 | 1099.8 |
| 20260505031504 | 10 | 225 | 3.2 | 11.3 | 0.00 | 0.00 | 0.00 | 82 | 1099.8 |
| 20260505031005 | 10 | 219 | 4.8 | 11.3 | 0.00 | 0.00 | 0.00 | 82 | 1099.8 |
| 20260505030504 | 10 | 214 | 4.8 | 11.3 | 0.00 | 0.00 | 0.00 | 81 | 1099.8 |
| 20260505030004 | 10 | 192 | 3.2 | 12.9 | 0.00 | 0.00 | 0.00 | 81 | 1099.8 |
| 20260505025004 | 11 | 223 | 3.2 | 9.7 | 0.00 | 0.00 | 0.00 | 80 | 1099.8 |
| 20260505024004 | 11 | 225 | 6.4 | 19.3 | 0.00 | 0.00 | 0.00 | 79 | 1099.8 |
| 20260505023504 | 11 | 229 | 4.8 | 11.3 | 0.00 | 0.00 | 0.00 | 79 | 1099.8 |
| 20260505023005 | 11 | 229 | 6.4 | 22.5 | 0.00 | 0.00 | 0.00 | 79 | 1099.8 |
| 20260505022504 | 11 | 224 | 4.8 | 11.3 | 0.00 | 0.00 | 0.00 | 79 | 1099.8 |
| 20260505022005 | 11 | 218 | 6.4 | 11.3 | 0.00 | 0.00 | 0.00 | 78 | 1099.8 |
| 20260505021005 | 11 | 208 | 3.2 | 12.9 | 0.00 | 0.00 | 0.00 | 78 | 1099.8 |
| 20260505020505 | 11 | 219 | 3.2 | 11.3 | 0.00 | 0.00 | 0.00 | 77 | 1099.8 |
| 20260505020004 | 11 | 224 | 4.8 | 16.1 | 0.00 | 0.00 | 0.00 | 77 | 1099.8 |
| 20260505015005 | 11 | 225 | 3.2 | 14.5 | 0.00 | 0.00 | 0.00 | 77 | 1099.8 |
| 20260505014505 | 11 | 217 | 6.4 | 22.5 | 0.00 | 0.00 | 0.00 | 76 | 1099.8 |
| 20260505014004 | 11 | 210 | 3.2 | 22.5 | 0.00 | 0.00 | 0.00 | 76 | 1099.8 |
| 20260505013004 | 11 | 226 | 4.8 | 14.5 | 0.00 | 0.00 | 0.00 | 75 | 1099.8 |
| 20260505012506 | 11 | 236 | 9.7 | 22.5 | 0.00 | 0.00 | 0.00 | 75 | 1099.8 |
| 20260505010504 | 11 | 227 | 8.0 | 22.5 | 0.00 | 0.00 | 0.00 | 73 | 1099.8 |
| 20260505010005 | 11 | 210 | 8.0 | 19.3 | 0.00 | 0.00 | 0.00 | 72 | 1099.8 |
| 20260505005505 | 11 | 240 | 8.0 | 16.1 | 0.00 | 0.00 | 0.00 | 72 | 1099.8 |
| 20260505005005 | 12 | 240 | 4.8 | 20.9 | 0.00 | 0.00 | 0.00 | 71 | 1099.8 |
| 20260505004504 | 12 | 237 | 9.7 | 24.1 | 0.00 | 0.00 | 0.00 | 71 | 1099.8 |
| 20260505004004 | 12 | 216 | 9.7 | 24.1 | 0.00 | 0.00 | 0.00 | 70 | 1099.8 |
| 20260505003506 | 12 | 253 | 8.0 | 14.5 | 0.00 | 0.00 | 0.00 | 70 | 1099.8 |
| 20260505003004 | 12 | 253 | 4.8 | 14.5 | 0.00 | 0.00 | 0.00 | 70 | 1099.8 |
| 20260505002504 | 12 | 244 | 8.0 | 16.1 | 0.00 | 0.00 | 0.00 | 70 | 1099.8 |
| 20260505002004 | 12 | 244 | 4.8 | 19.3 | 0.00 | 0.00 | 0.00 | 70 | 1099.8 |
| 20260505001504 | 12 | 227 | 4.8 | 19.3 | 0.00 | 0.00 | 0.00 | 70 | 1099.8 |
| 20260505001004 | 12 | 223 | 4.8 | 14.5 | 0.00 | 0.00 | 0.00 | 70 | 1099.8 |
| 20260505000505 | 12 | 189 | 8.0 | 22.5 | 0.00 | 0.00 | 0.00 | 70 | 1099.8 |
| 20260505000004 | 12 | 225 | 6.4 | 24.1 | 0.00 | 0.00 | 0.00 | 70 | 1099.8 |
| 20260504235504 | 12 | 215 | 6.4 | 14.5 | 0.00 | 0.00 | 0.00 | 70 | 1099.8 |
| 20260504235004 | 12 | 220 | 9.7 | 19.3 | 0.00 | 0.00 | 0.00 | 69 | 1099.8 |
| 20260504234504 | 12 | 232 | 8.0 | 24.1 | 0.00 | 0.00 | 0.00 | 69 | 1099.8 |
| 20260504234005 | 12 | 211 | 8.0 | 22.5 | 0.00 | 0.00 | 0.00 | 69 | 1099.8 |
| 20260504233503 | 12 | 265 | 9.7 | 19.3 | 0.00 | 0.00 | 0.00 | 69 | 1099.8 |
| 20260504233004 | 12 | 232 | 8.0 | 19.3 | 0.00 | 0.00 | 0.00 | 69 | 1099.8 |
| 20260504232504 | 12 | 218 | 8.0 | 25.7 | 0.00 | 0.00 | 0.00 | 68 | 1099.8 |
| 20260504232005 | 12 | 196 | 6.4 | 20.9 | 0.00 | 0.00 | 0.00 | 68 | 1099.8 |
| 20260504231504 | 12 | 226 | 8.0 | 19.3 | 0.00 | 0.00 | 0.00 | 68 | 1099.8 |
| 20260504231004 | 12 | 203 | 8.0 | 16.1 | 0.00 | 0.00 | 0.00 | 68 | 1099.8 |
| 20260504230504 | 12 | 222 | 8.0 | 20.9 | 0.00 | 0.00 | 0.00 | 68 | 1099.8 |
| 20260504230005 | 13 | 211 | 9.7 | 22.5 | 0.00 | 0.00 | 0.00 | 67 | 1099.8 |
| 20260504225504 | 13 | 240 | 8.0 | 22.5 | 0.00 | 0.00 | 0.00 | 67 | 1099.8 |
| 20260504225004 | 13 | 225 | 11.3 | 25.7 | 0.00 | 0.00 | 0.00 | 67 | 1099.8 |
| 20260504224504 | 13 | 224 | 12.9 | 29.0 | 0.00 | 0.00 | 0.00 | 67 | 1099.8 |
| 20260504224004 | 13 | 209 | 9.7 | 32.2 | 0.00 | 0.00 | 0.00 | 66 | 1099.8 |
| 20260504222505 | 13 | 234 | 9.7 | 19.3 | 0.00 | 0.00 | 0.00 | 66 | 1099.8 |
| 20260504222004 | 13 | 231 | 11.3 | 22.5 | 0.00 | 0.00 | 0.00 | 65 | 1099.8 |
| 20260504221006 | 14 | 229 | 4.8 | 16.1 | 0.00 | 0.00 | 0.00 | 64 | 1099.8 |
| 20260504220504 | 14 | 230 | 9.7 | 19.3 | 0.00 | 0.00 | 0.00 | 63 | 1099.8 |
| 20260504220005 | 14 | 193 | 11.3 | 25.7 | 0.00 | 0.00 | 0.00 | 62 | 1099.8 |
| 20260504215004 | 15 | 227 | 9.7 | 40.2 | 0.00 | 0.00 | 0.00 | 61 | 1099.8 |
| 20260504214504 | 15 | 182 | 12.9 | 29.0 | 0.00 | 0.00 | 0.00 | 61 | 1099.8 |
| 20260504213505 | 15 | 213 | 11.3 | 24.1 | 0.00 | 0.00 | 0.00 | 61 | 1099.8 |
| 20260504213005 | 15 | 211 | 14.5 | 25.7 | 0.00 | 0.00 | 0.00 | 60 | 1099.8 |
| 20260504212004 | 15 | 218 | 8.0 | 20.9 | 0.00 | 0.00 | 0.00 | 60 | 1099.8 |
| 20260504211504 | 16 | 210 | 11.3 | 29.0 | 0.00 | 0.00 | 0.00 | 59 | 1099.8 |
| 20260504211004 | 16 | 199 | 11.3 | 32.2 | 0.00 | 0.00 | 0.00 | 59 | 1099.8 |
| 20260504210504 | 15 | 192 | 9.7 | 22.5 | 0.00 | 0.00 | 0.00 | 62 | 1099.8 |
| 20260504210004 | 15 | 208 | 9.7 | 33.8 | 0.00 | 0.00 | 0.00 | 62 | 1099.8 |
| 20260504205504 | 16 | 183 | 9.7 | 33.8 | 0.00 | 0.00 | 0.00 | 60 | 1099.8 |
| 20260504205005 | 16 | 217 | 11.3 | 33.8 | 0.00 | 0.00 | 0.00 | 59 | 1099.8 |
| 20260504204004 | 16 | 239 | 9.7 | 33.8 | 0.00 | 0.00 | 0.00 | 57 | 1099.8 |
| 20260504202504 | 17 | 212 | 11.3 | 40.2 | 0.00 | 0.00 | 0.00 | 51 | 1099.8 |
| 20260504202004 | 17 | 230 | 14.5 | 33.8 | 0.00 | 0.00 | 0.00 | 48 | 1099.8 |
| 20260504201504 | 17 | 229 | 9.7 | 29.0 | 0.00 | 0.00 | 0.00 | 46 | 1099.8 |
| 20260504201005 | 17 | 238 | 11.3 | 32.2 | 0.00 | 0.00 | 0.00 | 47 | 1099.8 |
| 20260504200504 | 17 | 214 | 14.5 | 32.2 | 0.00 | 0.00 | 0.00 | 45 | 1099.8 |
| 20260504200005 | 17 | 216 | 9.7 | 32.2 | 0.00 | 0.00 | 0.00 | 46 | 1099.8 |
| 20260504195504 | 17 | 224 | 11.3 | 38.6 | 0.00 | 0.00 | 0.00 | 45 | 1099.8 |
| 20260504194505 | 17 | 228 | 11.3 | 32.2 | 0.00 | 0.00 | 0.00 | 47 | 1099.8 |
| 20260504194004 | 17 | 203 | 16.1 | 32.2 | 0.00 | 0.00 | 0.00 | 45 | 1099.8 |
| 20260504193005 | 18 | 244 | 12.9 | 56.3 | 0.00 | 0.00 | 0.00 | 45 | 1099.8 |
| 20260504192504 | 18 | 216 | 16.1 | 35.4 | 0.00 | 0.00 | 0.00 | 44 | 1099.8 |
| 20260504192004 | 18 | 213 | 11.3 | 33.8 | 0.00 | 0.00 | 0.00 | 46 | 1099.8 |
| 20260504191504 | 18 | 197 | 9.7 | 32.2 | 0.00 | 0.00 | 0.00 | 48 | 1099.8 |
| 20260504191004 | 18 | 218 | 11.3 | 32.2 | 0.00 | 0.00 | 0.00 | 48 | 1099.8 |
| 20260504190504 | 18 | 224 | 9.7 | 24.1 | 0.00 | 0.00 | 0.00 | 47 | 1099.8 |
| 20260504190004 | 18 | 249 | 9.7 | 20.9 | 0.00 | 0.00 | 0.00 | 51 | 1099.8 |
| 20260504185504 | 18 | 206 | 14.5 | 40.2 | 0.00 | 0.00 | 0.00 | 50 | 1099.8 |
| 20260504185005 | 18 | 192 | 12.9 | 24.1 | 0.00 | 0.00 | 0.00 | 54 | 1099.8 |
| 20260504183504 | 18 | 232 | 9.7 | 25.7 | 0.00 | 0.00 | 0.00 | 54 | 1099.8 |
| 20260504183004 | 18 | 238 | 4.8 | 19.3 | 0.00 | 0.00 | 0.00 | 56 | 1099.8 |
| 20260504182005 | 17 | 225 | 9.7 | 25.7 | 0.00 | 0.00 | 0.00 | 56 | 1099.8 |
| 20260504181504 | 17 | 205 | 9.7 | 25.7 | 0.00 | 0.00 | 0.00 | 58 | 1099.8 |
| 20260504181004 | 17 | 210 | 12.9 | 22.5 | 0.00 | 0.00 | 0.00 | 58 | 1099.8 |
| 20260504180505 | 17 | 221 | 9.7 | 19.3 | 0.00 | 0.00 | 0.00 | 58 | 1099.8 |
| 20260504180004 | 17 | 233 | 11.3 | 24.1 | 0.00 | 0.00 | 0.00 | 55 | 1099.8 |
| 20260504175005 | 17 | 203 | 11.3 | 25.7 | 0.00 | 0.00 | 0.00 | 53 | 1099.8 |
| 20260504174504 | 18 | 215 | 9.7 | 32.2 | 0.00 | 0.00 | 0.00 | 53 | 1099.8 |
| 20260504174005 | 17 | 217 | 14.5 | 40.2 | 0.00 | 0.00 | 0.00 | 52 | 1099.8 |
| 20260504173505 | 17 | 199 | 12.9 | 32.2 | 0.00 | 0.00 | 0.00 | 53 | 1099.8 |
| 20260504173005 | 17 | 227 | 11.3 | 33.8 | 0.00 | 0.00 | 0.00 | 54 | 1099.8 |
| 20260504172504 | 17 | 208 | 14.5 | 32.2 | 0.00 | 0.00 | 0.00 | 52 | 1099.8 |
| 20260504172005 | 18 | 236 | 11.3 | 25.7 | 0.00 | 0.00 | 0.00 | 51 | 1099.8 |
| 20260504171505 | 18 | 249 | 11.3 | 29.0 | 0.00 | 0.00 | 0.00 | 49 | 1099.8 |
| 20260504171005 | 18 | 185 | 8.0 | 32.2 | 0.00 | 0.00 | 0.00 | 48 | 1099.8 |
| 20260504170504 | 19 | 220 | 14.5 | 32.2 | 0.00 | 0.00 | 0.00 | 42 | 1099.8 |
| 20260504151004 | 17 | 229 | 9.7 | 19.3 | 0.00 | 0.00 | 0.00 | 60 | 1099.8 |
| 20260504141004 | 17 | 224 | 11.3 | 32.2 | 0.00 | 0.00 | 0.00 | 42 | 1099.8 |
| 20260504140504 | 17 | 253 | 8.0 | 16.1 | 0.00 | 0.00 | 0.00 | 43 | 1099.8 |
| 20260504130504 | 15 | 256 | 4.8 | 12.9 | 0.00 | 0.00 | 0.00 | 50 | 1099.8 |
| 20260504110504 | 8 | 244 | 1.6 | 9.7 | 0.00 | 0.00 | 0.00 | 73 | 1099.8 |
| 20260504100504 | 6 | 244 | 0.0 | 0.0 | 0.00 | 0.00 | 0.00 | 77 | 1099.8 |